Weather in Koma

Russia / Republic of Buryatia     52°09′53″N   107°30′05″E
temp.,
°C
wind,
m/s
gust,
m/s
humid.,
%
clouds,
%
prec.,
mm/h
press.,
hPa
HPBL,
m
2 august, mon
mon223:00+13n118263 0.0 100512
02:00+13nne1180100 0.0 100410
05:00+13ne1179100 0.0 100310
08:00+17ese116465 0.0 1002202
11:00+18ssw3368100 0.1 1001601
14:00+15nnw1187100 0.3 100235
17:00+15wnw1191100 0.4 100218
20:00+14w2297100 0.8 100376
3 august, tue
tue323:00+13w1298100 0.3 1004107
02:00+12wsw1299100 0.6 1005156
05:00+12sw2499100 0.3 1006319
08:00+12wsw2498100 0.3 1007413
11:00+13wsw2596100 0.1 1008497
14:00+15wsw3484100 0.1 1008566
17:00+19w4563100 0.1 1007764
20:00+14wsw2284100 0.4 100841
4 august, wed
wed423:00+12w1193100 0.0 100816
02:00+12wsw1192100 0.0 100834
05:00+12wsw1196100 0.0 100842
08:00+12wsw1294100 0.1 100884
11:00+16w2476100 0.2 1007624
14:00+20nw365527 0.3 10061358
17:00+22nw484616 0.3 10051798
20:00+16w23745 0.3 100683
5 august, thu
thu523:00+13wnw118515 0.0 100615
02:00+11w118940 0.0 100612
05:00+11wnw119136 0.0 100612
08:00+17sw12670 0.0 1005233
11:00+24wsw343918 0.0 10032040
14:00+25w45325 0.0 10012478
17:00+25wnw35356 0.0 10002027
20:00+19wnw22645 0.0 100122
6 august, fri
fri623:00+14n117314 0.0 100211
02:00+13nnw1178100 0.0 100210
05:00+12nnw018437 0.0 100210
08:00+18sse116463 0.0 1001236
11:00+24sse114655 0.0 10001034
14:00+26s233976 0.1 9982199
17:00+22nne2366100 0.5 998257
20:00+16nne1192100 2.5 99924